Location: Maignaut
(43.8886°N, 0.4051°E)
Time: 16:30:03
(UTC+00:00)

Cosmos 1939 Rocket - Pass Details

Date: 27 February 2020
Orbit: 532 x 585 km, 97.4° (Epoch: 29 March)

Event Time Altitude Azimuth Distance (km) Brightness Sun altitude
Rises 19:02:34 0° 183° (S) 2,792 6.4 -15.0°
Reaches altitude 10° 19:04:48 10° 190° (S) 1,900 5.6 -15.4°
Maximum altitude 19:08:44 42° 262° (W) 836 4.3 -16.1°
Drops below altitude 10° 19:12:42 10° 334° (NNW) 1,914 6.0 -16.8°
Sets 19:14:58 0° 341° (NNW) 2,816 6.8 -17.2°
